Weather in Mirny

Russia / Sakha (Yakutia) Republic     62˚32′27″N   113˚58′43″E
temp.,
°C
wind,
m/s
gust,
m/s
humid.,
%
clouds,
%
prec.,
mm/h
press.,
hPa
HPBL,
m
30 november, mon
mon3000:00−25˚wsw389798 0.0 1034236
03:00−24˚wsw3897100 0.0 1033248
06:00−23˚wsw31197100 0.0 1031263
09:00−20˚wsw31196100 0.0 1030346
12:00−19˚wsw4992100 0.0 1028416
15:00−18˚wsw41092100 0.0 1027475
18:00−18˚wsw41092100 0.0 1027469
21:00−18˚wsw41094100 0.1 1026396
1 december, tue
tue100:00−19˚wsw41096100 0.0 1025332
03:00−20˚wsw41096100 0.0 1024315
06:00−20˚wsw4129599 0.0 1024363
09:00−20˚wsw41295100 0.0 1023356
12:00−19˚wsw51294100 0.0 1022379
15:00−17˚wsw51193100 0.1 1021486
18:00−16˚wsw51292100 0.4 1020610
21:00−16˚wsw51391100 0.5 1019493
2 december, wed
wed200:00−16˚w61491100 0.0 1018583
03:00−16˚wnw61291100 0.4 1019509
06:00−17˚w51393100 0.0 1021355
09:00−16˚w51293100 0.0 1021343
12:00−14˚wsw51291100 0.0 1019385
15:00−15˚wsw61493100 0.4 1017656
18:00−13˚w61492100 0.7 1016803
21:00−13˚wnw61389100 0.9 1016614
3 december, thu
thu300:00−14˚w61390100 0.1 1015507
03:00−13˚w5149099 0.1 1015535
06:00−13˚w51390100 0.0 1013663
09:00−11˚wsw61389100 0.4 1011871
12:00−12˚w61489100 0.1 1008839
15:00−12˚wsw71587100 0.3 1007755
18:00−12˚wsw81587100 0.1 1005931
21:00−12˚w71490100 0.4 10041198
4 december, fri
fri400:00−14˚w71488100 0.3 10021076
03:00−15˚w71587100 0.4 10021025
06:00−13˚w81587100 0.2 1002961
09:00−14˚w61489100 0.3 1002775
12:00−14˚w51290100 0.1 1003821
15:00−14˚w51290100 0.1 1004753
18:00−15˚w51291100 0.1 1004595
21:00−16˚wnw51192100 0.2 1004560